Regional Weather Roundup
Issued by NWS Northern Indiana

Home | Current Version | Previous Version | Graphics & Text | Print | Product List | Glossary On
Versions: 1 2 3 4 5 6 7 8 9 10 11 12 13 14 15 16 17 18 19 20 21 22 23 24 25 26 27 28 29 30 31 32 33 34 35 36 37 38 39 40 41 42 43 44 45 46 47 48 49 50
000
ASUS43 KIWX 250710
RWRIWX

KIWX WEATHER ROUNDUP
NATIONAL WEATHER SERVICE NORTHERN INDIANA
300 AM EDT SAT OCT 25 2014

NOTE: "FAIR" INDICATES FEW OR NO CLOUDS BELOW 12,000 FEET WITH NO
SIGNIFICANT WEATHER AND/OR OBSTRUCTIONS TO VISIBILITY.

* THESE STATIONS ARE NOT UNDER NWS QUALITY CONTROL. THEY ALSO MAY NOT
  REPORT WEATHER SUCH AS PRECIPITATION OR FOG.

INZ001>027-250800-
NORTHERN INDIANA

CITY           SKY/WX    TMP DP  RH WIND       PRES   REMARKS
GARY*          MOCLDY    59  52  77 SW5       29.92S
VALPARAISO     CLOUDY    55  51  86 S3        29.93F
MICHIGAN CITY* CLOUDY    55  46  71 S7        29.92F
LAPORTE*       CLOUDY    56  52  86 S3        29.93F
KNOX*          CLOUDY    55  50  85 S3        29.92F
SOUTH BEND     CLOUDY    55  49  80 SW9       29.93F
GOSHEN         CLOUDY    53  50  89 S6        29.94F
MONTICELLO*    CLOUDY    55  53  91 S3        29.95S
LOGANSPORT*    CLOUDY    52  50  93 S3        29.96F
ROCHESTER*     CLOUDY    55  54  94 SW3       29.95F
WARSAW*        CLOUDY    52  50  93 SW3       29.95F
ANGOLA*        CLOUDY    45  43  93 CALM      29.95S
FORT WAYNE     PTCLDY    48  46  93 SW7       29.97F
HUNTINGTON*    MOCLDY   N/A N/A N/A SW3       29.97S
PERU/GRISSOM   CLOUDY    51  50  99 S6        29.96F
MARION*        MOCLDY    48  46  93 S5        29.99R FOG

$$
INZ028>050-250800-
CENTRAL INDIANA

CITY           SKY/WX    TMP DP  RH WIND       PRES   REMARKS
LAFAYETTE      CLOUDY    55  52  89 CALM      29.96F
KOKOMO*        MOCLDY    50  46  87 SW7       29.98F
MUNCIE*        CLOUDY    54  49  83 SW6       29.99S
INDIANAPOLIS   PTCLDY    50  48  93 W6        30.00R

$$
MIZ043>046-050>051-056>058-064>065-071>073-077>080-250800-
SOUTHWEST LOWER MICHIGAN

CITY           SKY/WX    TMP DP  RH WIND       PRES   REMARKS
BATTLE CREEK   MOCLDY    50  46  86 S7        29.92F FOG
BENTON HARBOR  CLOUDY    54  49  83 S5        29.90F
COLDWATER*     MOCLDY    52  51  94 SW8       29.94R
HILLSDALE*     PTCLDY    49  49 100 SW3       29.94S FOG
HOLLAND        CLOUDY    55  50  83 S7        29.88F
GRAND RAPIDS   CLOUDY    50  47  89 S9        29.88F FOG
KALAMAZOO      CLOUDY    51  48  89 S7        29.91F FOG
STURGIS*       CLOUDY    50  48  93 CALM      29.93F FOG
THREE RIVERS*  CLOUDY    50  49  97 S3        29.93F FOG

$$
OHZ001>008-015>018-024>025-250800-
NORTHWEST OHIO

CITY           SKY/WX    TMP DP  RH WIND       PRES   REMARKS
WAUSEON*       FAIR      46  46 100 CALM      29.95S FOG
DEFIANCE       PTCLDY    48  47  96 SW5       29.96F FOG
FINDLAY        PTCLDY    47  43  86 S6        29.96F
TOLEDO EXPRESS PTCLDY    47  45  93 SW3       29.94F
TOLEDO METCALF FAIR      48  44  86 SW6       29.96S
LIMA           MOCLDY    52  46  80 S6        29.97F

$$
AND FOR LAKE MICHIGAN COASTAL AND OPEN LAKE BUOY OBSERVATIONS

STATION/POSITION TEMP    WIND        PRES    VSBY  WAVE
                 AIR SEA DIR/SP/G                  HT/PER
                 (F)     (DEG/KT/KT) (MB)    (MI)  (FT/S)
CALUMET HARBOR    58     210/  5/  8 1011.8F
MICHIGAN CITY     59     190/ 10/ 11   N/A
SAINT JOSEPH      60                 1013.2R
SOUTH LAKE BUOY   58 54  210/ 12/ 14 1011.2F         1/ 3

$$
&&



USA.gov is the U.S. government's official web portal to all federal, state and local government web resources and services.